Location: Godiavel Galaoual
(15.2485°N, 12.6604°W)
Time: 07:42:29
(UTC+00:00)

Explorer 7 - Pass Details

Date: 18 June 2021
Orbit: 484 x 676 km, 50.3° (Epoch: 04 August)

Event Time Altitude Azimuth Distance (km) Brightness Sun altitude
Rises 20:19:13 0° 229° (SW) 2,955 10.8 -13.0°
Reaches altitude 10° 20:21:34 10° 234° (SW) 2,065 10.1 -13.5°
Maximum altitude 20:26:15 53° 310° (NW) 826 8.1 -14.4°
Drops below altitude 10° 20:31:01 10° 27° (NNE) 2,102 9.8 -15.4°
Sets 20:33:26 0° 32° (NNE) 3,012 10.6 -15.9°
